Simultaneous Nadir Overpasses (SNOs) Predictions

Prediction of SNOs between AQUA and GOES-15 Satellite Orbit:

Table of predicted SNOs for the next 14.0 days since TLE Epoch: 2/19/2016
Index Date Time (AQUA) AQUA Lat,Lon GOES-15 Lat,Lon Distance(km) Time Diff (sec)
1 02/20/2016 10:38:12 0.03,-135.62 -0.03,-135.31 35.50 80
2 02/22/2016 10:26:03 -0.61,-132.67 -0.03,-135.28 297.59 80
3 02/22/2016 22:47:26 -0.54,-137.85 0.03,-135.23 298.06 80
4 02/24/2016 22:35:16 0.07,-134.90 0.03,-135.21 34.77 80
5 02/26/2016 22:23:08 0.75,-131.95 0.03,-135.17 366.96 80
6 02/27/2016 10:44:22 0.41,-137.10 -0.03,-135.21 215.84 80
7 02/29/2016 10:32:12 -0.23,-134.15 -0.03,-135.17 115.87 80
8 02/29/2016 22:53:36 -0.90,-139.33 0.02,-135.11 480.11 80
9 03/02/2016 10:20:02 -0.88,-131.19 -0.02,-135.12 446.94 80
10 03/02/2016 22:41:26 -0.25,-136.38 0.02,-135.07 149.20 80




NCC Satellite Simultaneous Nadir Overpasses (SNOs) Prediction Service
